Location: Sevilla
(37.3933°N, 5.9839°W)
Time: 12:30:56
(UTC+02:00)

Tiros 1 despin weight - Pass Details

Date: 01 July 2024
Orbit: 576 x 620 km, 48.2° (Epoch: 21 July)

Event Time Altitude Azimuth Distance (km) Brightness Sun altitude
Rises 11:22:03 0° 249° (WSW) 2,850 ? 47.8°
Reaches altitude 10° 11:24:23 10° 254° (WSW) 1,955 ? 48.3°
Maximum altitude 11:28:47 52° 332° (NNW) 764 ? 49.2°
Drops below altitude 10° 11:33:14 10° 49° (NE) 1,982 ? 50.0°
Sets 11:35:37 0° 54° (NE) 2,893 ? 50.5°
